Satellite: HRBE Catalog number: 37855 Epoch time: 13034.42190646 Element set: 410 Inclination: 101.7155 deg RA of node: 186.7055 deg Eccentricity: 0.0240061 Arg of perigee: 049.6846 deg Mean anomaly: 312.5061 deg Mean motion: 14.82622686 rev/day Decay rate: 1.731e-05 rev/day^2 Epoch rev: 6862 Checksum: 283
Satellite: RS-39 Catalog number: 38051 Epoch time: 13034.75813015 Element set: 137 Inclination: 051.6353 deg RA of node: 132.6661 deg Eccentricity: 0.0012944 Arg of perigee: 143.7879 deg Mean anomaly: 354.4136 deg Mean motion: 15.28984387 rev/day Decay rate: 8.432e-05 rev/day^2 Epoch rev: 5734 Checksum: 314
Satellite: E-STAR Catalog number: 38079 Epoch time: 13034.67503324 Element set: 862 Inclination: 069.4841 deg RA of node: 139.4852 deg Eccentricity: 0.0668715 Arg of perigee: 311.6073 deg Mean anomaly: 042.9667 deg Mean motion: 14.33426298 rev/day Decay rate: 3.3167e-04 rev/day^2 Epoch rev: 5053 Checksum: 319
Satellite: GOLIAT Catalog number: 38085 Epoch time: 13034.65475485 Element set: 803 Inclination: 069.4884 deg RA of node: 140.8241 deg Eccentricity: 0.0676609 Arg of perigee: 312.2861 deg Mean anomaly: 042.2888 deg Mean motion: 14.31880828 rev/day Decay rate: 3.2249e-04 rev/day^2 Epoch rev: 5049 Checksum: 326
Satellite: HORYU-2 Catalog number: 38340 Epoch time: 13034.89566336 Element set: 353 Inclination: 098.2026 deg RA of node: 341.5428 deg Eccentricity: 0.0012027 Arg of perigee: 319.6928 deg Mean anomaly: 040.3402 deg Mean motion: 14.70592394 rev/day Decay rate: 9.59e-06 rev/day^2 Epoch rev: 3852 Checksum: 300
Satellite: RS-40 Catalog number: 38736 Epoch time: 13034.53895877 Element set: 178 Inclination: 082.4742 deg RA of node: 238.4637 deg Eccentricity: 0.0018003 Arg of perigee: 261.0516 deg Mean anomaly: 098.8536 deg Mean motion: 12.42650463 rev/day Decay rate: 1.0e-07 rev/day^2 Epoch rev: 2364 Checksum: 302
Satellite: PROITERES Catalog number: 38756 Epoch time: 13034.80501523 Element set: 474 Inclination: 098.2673 deg RA of node: 109.3414 deg Eccentricity: 0.0012765 Arg of perigee: 166.6933 deg Mean anomaly: 193.4609 deg Mean motion: 14.74065816 rev/day Decay rate: 3.58e-06 rev/day^2 Epoch rev: 2174 Checksum: 304
Satellite: AENEAS Catalog number: 38760 Epoch time: 13010.30862094 Element set: 0038 Inclination: 064.6736 deg RA of node: 037.6222 deg Eccentricity: 0.0216021 Arg of perigee: 256.7016 deg Mean anomaly: 100.9927 deg Mean motion: 14.80037176 rev/day Decay rate: 4.933e-05 rev/day^2 Epoch rev: 00558 Checksum: 275
Satellite: CSSWE-D Catalog number: 38761 Epoch time: 13010.31251606 Element set: 0035 Inclination: 064.6743 deg RA of node: 037.6425 deg Eccentricity: 0.0217594 Arg of perigee: 256.6983 deg Mean anomaly: 100.9785 deg Mean motion: 14.79845475 rev/day Decay rate: 4.126e-05 rev/day^2 Epoch rev: 00560 Checksum: 303
Satellite: CXBN-E Catalog number: 38762 Epoch time: 13010.30523402 Element set: 0036 Inclination: 064.6804 deg RA of node: 037.6257 deg Eccentricity: 0.0218357 Arg of perigee: 256.1531 deg Mean anomaly: 101.5196 deg Mean motion: 14.79997447 rev/day Decay rate: 5.383e-05 rev/day^2 Epoch rev: 00567 Checksum: 296
Satellite: OBJECT F Catalog number: 38763 Epoch time: 13010.30916126 Element set: 0035 Inclination: 064.6735 deg RA of node: 037.6208 deg Eccentricity: 0.0218061 Arg of perigee: 256.7365 deg Mean anomaly: 100.9342 deg Mean motion: 14.79862223 rev/day Decay rate: 3.917e-05 rev/day^2 Epoch rev: 00561 Checksum: 280
Satellite: CINEMA-G Catalog number: 38764 Epoch time: 13010.30690144 Element set: 0034 Inclination: 064.6741 deg RA of node: 037.6060 deg Eccentricity: 0.0217613 Arg of perigee: 256.7942 deg Mean anomaly: 100.8813 deg Mean motion: 14.79914111 rev/day Decay rate: 4.197e-05 rev/day^2 Epoch rev: 00557 Checksum: 278
Satellite: CP5 Catalog number: 38765 Epoch time: 13010.36660122 Element set: 0036 Inclination: 064.6738 deg RA of node: 037.3618 deg Eccentricity: 0.0216618 Arg of perigee: 256.5143 deg Mean anomaly: 101.1776 deg Mean motion: 14.80096794 rev/day Decay rate: 5.184e-05 rev/day^2 Epoch rev: 00558 Checksum: 301
Satellite: RAIKO Catalog number: 38852 Epoch time: 13034.23638894 Element set: 132 Inclination: 051.6494 deg RA of node: 050.0434 deg Eccentricity: 0.0013061 Arg of perigee: 219.2637 deg Mean anomaly: 140.7410 deg Mean motion: 15.60060371 rev/day Decay rate: 2.9804e-04 rev/day^2 Epoch rev: 1886 Checksum: 271
Satellite: FITSAT 1 Catalog number: 38853 Epoch time: 13034.23366584 Element set: 130 Inclination: 051.6495 deg RA of node: 049.2838 deg Eccentricity: 0.0009302 Arg of perigee: 236.7196 deg Mean anomaly: 123.2906 deg Mean motion: 15.61878063 rev/day Decay rate: 3.8017e-04 rev/day^2 Epoch rev: 1892 Checksum: 306
Satellite: TechEdSat Catalog number: 38854 Epoch time: 13034.52801891 Element set: 146 Inclination: 051.6418 deg RA of node: 045.9866 deg Eccentricity: 0.0005861 Arg of perigee: 245.1282 deg Mean anomaly: 114.9107 deg Mean motion: 15.66523401 rev/day Decay rate: 6.6318e-04 rev/day^2 Epoch rev: 1899 Checksum: 305
Satellite: F 1 Catalog number: 38855 Epoch time: 13034.48206633 Element set: 149 Inclination: 051.6465 deg RA of node: 046.4266 deg Eccentricity: 0.0008401 Arg of perigee: 237.9137 deg Mean anomaly: 122.1083 deg Mean motion: 15.65978016 rev/day Decay rate: 6.2420e-04 rev/day^2 Epoch rev: 1887 Checksum: 297
Satellite: WeWish Catalog number: 38856 Epoch time: 13034.83529446 Element set: 165 Inclination: 051.6372 deg RA of node: 040.4950 deg Eccentricity: 0.0003874 Arg of perigee: 190.1825 deg Mean anomaly: 169.9494 deg Mean motion: 15.78864587 rev/day Decay rate: 1.98697e-03 rev/day^2 Epoch rev: 1898 Checksum: 361
/EX
participants (1)
-
Ray Hoad